This demonstration page uses our WeatherBlox Daily Observations layout. Learn more.

Hourly Observations for August 2, 2016

Temp ( °F °C ) Dew Point ( °F °C ) Humidity (%) Winds ( mph kmh ) Pressure ( in mb ) Visibility ( mi km ) Precip ( " mm )
12:54 am 00:54 Clear 77 25 71 21.7 82 82 SE 16 26 29.89 1012 10 16.0934 0 0
1:54 am 01:54 Clear 77 25 71 21.7 82 82 SE 9 15 29.91 1013 10 16.0934 0 0
2:52 am 02:52 Mostly Cloudy 77 25 69 20.6 77 77 NNW 26 43 29.99 1016 10 16.0934 0 0
2:55 am 02:55 Mostly Cloudy with Nearby Thunderstorms 75 23.9 68 20 79 79 N 26 43 29.97 1015 10 16.0934 0 0
3:09 am 03:09 Cloudy with Thunderstorms 73 22.8 68 20 84 84 N 28 44 30 1016 10 16.0934 0 0
3:29 am 03:29 Cloudy with Heavy Thunderstorms 71 21.7 69 20.6 94 94 NNW 17 28 30 1016 1.5 2.41401 0.1 2.54
3:41 am 03:41 Cloudy with Heavy Thunderstorms 69 20.6 68 20 96 96 NNE 22 35 30 1016 1.5 2.41401 0.41 10.414
3:49 am 03:49 Cloudy with Light Thunderstorms 70 21 68 20 94 94 N 17 28 30 1016 3 4.82802 0.47 11.938
3:54 am 03:54 Cloudy with Light Thunderstorms 69 20.6 68 20 96 96 NNE 13 20 29.99 1016 9 14.48406 0.48 12.192
4:54 am 04:54 Mostly Cloudy with Light Thunderstorms 69 20.6 68 20 96 96 Calm 29.99 1016 7 11.26538 0.18 4.572
5:01 am 05:01 Cloudy with Nearby Thunderstorms 70 21.1 68 20 93 93 Calm 30 1016 5 8.0467 0.01 0.254
5:19 am 05:19 Cloudy with Light Thunderstorms 70 21.1 68 20 93 93 VRB 3 6 30.03 1017 9 14.48406 0.03 0.762
5:54 am 05:54 Cloudy with Light Thunderstorms 70 21.1 68 20 93 93 S 9 15 30.02 1017 6 9.65604 0.08 2.032
6:09 am 06:09 Cloudy with Heavy Rain 69 20.6 68 20 96 96 S 14 22 30 1016 2 3.21868 0.13 3.302
6:17 am 06:17 Cloudy with Thunderstorms 69 20.6 68 20 96 96 SSE 14 22 30 1016 3 4.82802 0.2 5.08
6:34 am 06:34 Mostly Cloudy with Nearby Thunderstorms 72 22 66 19 83 83 SSE 16 26 29.97 1015 10 16.0934 0 0
6:42 am 06:42 Mostly Cloudy with Light Thunderstorms 70 21 66 19 88 88 SSE 15 24 29.94 1014 10 16.0934 0 0
6:54 am 06:54 Partly Cloudy with Light Thunderstorms 70 21.1 66 18.9 87 87 S 17 28 29.93 1014 10 16.0934 0.24 6.096
7:07 am 07:07 Partly Cloudy with Nearby Thunderstorms 71 21.7 67 19.4 87 87 SSW 16 26 29.97 1015 5 8.0467 0.01 0.254
7:26 am 07:26 Mostly Sunny 70 21.1 67 19.4 90 90 S 10 17 29.97 1015 10 16.0934 0.01 0.254
7:54 am 07:54 Sunny 70 21.1 67 19.4 90 90 SSE 5 7 29.94 1014 10 16.0934 0.01 0.254
8:54 am 08:54 Sunny 78 25.6 70 21.1 76 76 SW 5 7 29.94 1014 10 16.0934 0 0
9:54 am 09:54 Sunny 78 25.6 69 20.6 74 74 WSW 7 11 29.95 1014 10 16.0934 0 0
10:54 am 10:54 Sunny 85 29.4 70 21.1 61 61 N 7 11 29.99 1016 10 16.0934 0 0
11:54 am 11:54 Sunny 86 30 73 22.8 65 65 NE 9 15 30.02 1017 10 16.0934 0 0
12:54 pm 12:54 Sunny 85 29.4 73 22.8 68 68 NE 13 20 30.04 1017 10 16.0934 0 0
1:54 pm 13:54 Mostly Sunny 86 30 71 21.7 61 61 E 10 17 30.03 1017 10 16.0934 0 0
2:54 pm 14:54 Mostly Cloudy 85 29.4 72 22.2 65 65 E 7 11 30.01 1016 10 16.0934 0 0
3:54 pm 15:54 Partly Cloudy 88 31.1 72 22.2 59 59 E 5 7 30 1016 10 16.0934 0 0
4:54 pm 16:54 Partly Cloudy 88 31.1 72 22.2 59 59 VRB 5 7 29.99 1016 10 16.0934 0 0
5:54 pm 17:54 Partly Cloudy 87 30.6 72 22.2 61 61 SE 8 13 29.98 1015 10 16.0934 0 0
6:54 pm 18:54 Partly Cloudy 87 30.6 72 22.2 61 61 VRB 7 11 29.97 1015 10 16.0934 0 0
7:54 pm 19:54 Sunny 85 29.4 72 22.2 65 65 E 5 7 29.98 1015 10 16.0934 0 0
8:54 pm 20:54 Mostly Clear 83 28.3 72 22.2 70 70 ESE 6 9 29.98 1015 10 16.0934 0 0
9:54 pm 21:54 Mostly Clear 81 27.2 72 22.2 74 74 SE 5 7 30.02 1017 10 16.0934 0 0
10:54 pm 22:54 Clear 80 26.7 72 22.2 76 76 Calm 30.02 1017 10 16.0934 0 0
11:54 pm 23:54 Clear 79 26.1 73 22.8 82 82 Calm 30.01 1016 10 16.0934 0 0

Powered by AerisWeather